| time (UTC) | temp F | wind direction | speed MPH | gust MPH | rain 1hr in | rain 24hr in | rain mn in | humidity % | barometer mb |
| 20260831012606 | 67 | 77 | 2.0 | 4.0 | 0.00 | 0.00 | 0.00 | 27 | 1020.7 |
| 20260831011604 | 68 | 67 | 0.0 | 1.0 | 0.00 | 0.00 | 0.00 | 26 | 1020.5 |
| 20260831011504 | 68 | 67 | 0.0 | 1.0 | 0.00 | 0.00 | 0.00 | 27 | 1020.6 |
| 20260831010504 | 68 | 77 | 3.0 | 6.0 | 0.00 | 0.00 | 0.00 | 25 | 1020.7 |
| 20260831005604 | 69 | 71 | 5.0 | 7.0 | 0.00 | 0.00 | 0.00 | 26 | 1020.7 |
| 20260831004606 | 69 | 75 | 3.0 | 6.0 | 0.00 | 0.00 | 0.00 | 26 | 1020.8 |
| 20260831003606 | 70 | 81 | 5.0 | 7.0 | 0.00 | 0.00 | 0.00 | 24 | 1020.8 |
| 20260831002605 | 70 | 64 | 5.0 | 9.0 | 0.00 | 0.00 | 0.00 | 24 | 1020.7 |
| 20260831001704 | 71 | 88 | 6.0 | 8.0 | 0.00 | 0.00 | 0.00 | 23 | 1020.6 |
| 20260831000803 | 72 | 70 | 4.0 | 7.0 | 0.00 | 0.00 | 0.00 | 23 | 1020.7 |
| 20260830234804 | 71 | 60 | 2.0 | 4.0 | 0.00 | 0.00 | 0.00 | 24 | 1020.7 |
| 20260830233806 | 71 | 108 | 3.0 | 5.0 | 0.00 | 0.00 | 0.00 | 24 | 1020.8 |
| 20260830232808 | 71 | 79 | 2.0 | 4.0 | 0.00 | 0.00 | 0.00 | 23 | 1020.8 |
| 20260830231905 | 72 | 62 | 4.0 | 8.0 | 0.00 | 0.00 | 0.00 | 24 | 1020.8 |
| 20260830231005 | 71 | 32 | 2.0 | 4.0 | 0.00 | 0.00 | 0.00 | 24 | 1021.0 |
| 20260830225104 | 70 | 130 | 3.0 | 4.0 | 0.00 | 0.00 | 0.00 | 25 | 1021.3 |
| 20260830224105 | 70 | 29 | 1.0 | 2.0 | 0.00 | 0.00 | 0.00 | 25 | 1021.3 |
| 20260830223106 | 69 | 97 | 3.0 | 6.0 | 0.00 | 0.00 | 0.00 | 26 | 1021.3 |
| 20260830222105 | 69 | 112 | 4.0 | 10.0 | 0.00 | 0.00 | 0.00 | 27 | 1021.2 |
| 20260830215220 | 68 | 101 | 5.0 | 9.0 | 0.00 | 0.00 | 0.00 | 28 | 1021.7 |
| 20260830213305 | 67 | 97 | 4.0 | 6.0 | 0.00 | 0.00 | 0.00 | 31 | 1021.9 |
| 20260830212306 | 68 | 154 | 3.0 | 6.0 | 0.00 | 0.00 | 0.00 | 30 | 1022.0 |
| 20260830211306 | 68 | 59 | 5.0 | 8.0 | 0.00 | 0.00 | 0.00 | 32 | 1022.2 |
| 20260830210305 | 68 | 108 | 6.0 | 11.0 | 0.00 | 0.00 | 0.00 | 32 | 1022.2 |
| 20260830205305 | 67 | 72 | 7.0 | 10.0 | 0.00 | 0.00 | 0.00 | 32 | 1022.2 |
| 20260830204319 | 65 | 140 | 2.0 | 4.0 | 0.00 | 0.00 | 0.00 | 34 | 1022.2 |
| 20260830202404 | 65 | 2 | 1.0 | 2.0 | 0.00 | 0.00 | 0.00 | 34 | 1022.5 |
| 20260830201422 | 66 | 74 | 2.0 | 6.0 | 0.00 | 0.00 | 0.00 | 34 | 1022.4 |
| 20260830200506 | 65 | 61 | 4.0 | 6.0 | 0.00 | 0.00 | 0.00 | 35 | 1022.6 |
| 20260830194506 | 64 | 111 | 4.0 | 6.0 | 0.00 | 0.00 | 0.00 | 37 | 1022.8 |
| 20260830193603 | 64 | 91 | 7.0 | 10.0 | 0.00 | 0.00 | 0.00 | 36 | 1022.7 |
| 20260830192604 | 64 | 358 | 5.0 | 7.0 | 0.00 | 0.00 | 0.00 | 37 | 1022.9 |
| 20260830191605 | 63 | 58 | 6.0 | 9.0 | 0.00 | 0.00 | 0.00 | 38 | 1022.8 |
| 20260830190607 | 62 | 165 | 2.0 | 4.0 | 0.00 | 0.00 | 0.00 | 37 | 1023.0 |
| 20260830184606 | 62 | 82 | 5.0 | 8.0 | 0.00 | 0.00 | 0.00 | 39 | 1023.1 |
| 20260830183705 | 61 | 76 | 4.0 | 6.0 | 0.00 | 0.00 | 0.00 | 39 | 1023.0 |
| 20260830175705 | 58 | 157 | 1.0 | 2.0 | 0.00 | 0.00 | 0.00 | 43 | 1023.6 |
| 20260830174805 | 57 | 16 | 0.0 | 5.0 | 0.00 | 0.00 | 0.00 | 46 | 1023.6 |
| 20260830174704 | 57 | 72 | 2.0 | 5.0 | 0.00 | 0.00 | 0.00 | 45 | 1023.7 |
| 20260830173705 | 55 | 101 | 6.0 | 8.0 | 0.00 | 0.00 | 0.00 | 44 | 1023.7 |
| 20260830172705 | 49 | 78 | 4.0 | 6.0 | 0.00 | 0.00 | 0.00 | 47 | 1023.8 |
| 20260830171707 | 49 | 103 | 5.0 | 6.0 | 0.00 | 0.00 | 0.00 | 49 | 1023.8 |
| 20260830165806 | 57 | 150 | 1.0 | 3.0 | 0.00 | 0.00 | 0.00 | 49 | 1023.7 |
| 20260830164806 | 56 | 249 | 0.0 | 0.0 | 0.00 | 0.00 | 0.00 | 51 | 1023.7 |
| 20260830163905 | 55 | 235 | 1.0 | 2.0 | 0.00 | 0.00 | 0.00 | 52 | 1023.7 |
| 20260830162905 | 55 | 194 | 0.0 | 2.0 | 0.00 | 0.00 | 0.00 | 51 | 1024.0 |
| 20260830161906 | 54 | 67 | 0.0 | 2.0 | 0.00 | 0.00 | 0.00 | 54 | 1024.0 |
| 20260830161005 | 52 | 90 | 0.0 | 1.0 | 0.00 | 0.00 | 0.00 | 55 | 1024.0 |
| 20260830160005 | 51 | 212 | 0.0 | 2.0 | 0.00 | 0.00 | 0.00 | 58 | 1024.0 |
| 20260830155022 | 48 | 231 | 1.0 | 3.0 | 0.00 | 0.00 | 0.00 | 59 | 1024.0 |
| 20260830154105 | 48 | 207 | 2.0 | 4.0 | 0.00 | 0.00 | 0.00 | 61 | 1023.9 |
| 20260830153105 | 47 | 202 | 0.0 | 1.0 | 0.00 | 0.00 | 0.00 | 63 | 1023.9 |
| 20260830152104 | 46 | 221 | 2.0 | 5.0 | 0.00 | 0.00 | 0.00 | 66 | 1024.0 |
| 20260830151107 | 44 | 259 | 2.0 | 4.0 | 0.00 | 0.00 | 0.00 | 70 | 1024.0 |
| 20260830150104 | 42 | 250 | 0.0 | 2.0 | 0.00 | 0.00 | 0.00 | 72 | 1023.9 |
| 20260830143204 | 40 | 272 | 2.0 | 6.0 | 0.00 | 0.00 | 0.00 | 77 | 1023.7 |
| 20260830142205 | 39 | 261 | 1.0 | 3.0 | 0.00 | 0.00 | 0.00 | 78 | 1023.8 |
| 20260830140205 | 36 | 285 | 1.0 | 3.0 | 0.00 | 0.00 | 0.00 | 82 | 1023.4 |
| 20260830135206 | 35 | 255 | 2.0 | 5.0 | 0.00 | 0.00 | 0.00 | 82 | 1023.3 |
| 20260830133206 | 36 | 250 | 0.0 | 1.0 | 0.00 | 0.00 | 0.00 | 82 | 1023.2 |
| 20260830132206 | 36 | 258 | 3.0 | 6.0 | 0.00 | 0.00 | 0.00 | 81 | 1023.0 |
| 20260830131206 | 36 | 287 | 0.0 | 1.0 | 0.00 | 0.00 | 0.00 | 81 | 1023.0 |
| 20260830125204 | 36 | 269 | 3.0 | 5.0 | 0.00 | 0.00 | 0.00 | 80 | 1022.9 |
| 20260830124206 | 37 | 263 | 4.0 | 8.0 | 0.00 | 0.00 | 0.00 | 79 | 1022.7 |
| 20260830123206 | 37 | 277 | 0.0 | 1.0 | 0.00 | 0.00 | 0.00 | 79 | 1022.7 |
| 20260830122205 | 37 | 271 | 0.0 | 2.0 | 0.00 | 0.00 | 0.00 | 78 | 1022.6 |
| 20260830121205 | 37 | 267 | 2.0 | 5.0 | 0.00 | 0.00 | 0.00 | 79 | 1022.5 |
| 20260830120206 | 36 | 287 | 0.0 | 3.0 | 0.00 | 0.00 | 0.00 | 81 | 1022.4 |
| 20260830115205 | 36 | 250 | 0.0 | 2.0 | 0.00 | 0.00 | 0.00 | 80 | 1022.5 |
| 20260830114207 | 37 | 269 | 0.0 | 2.0 | 0.00 | 0.00 | 0.00 | 79 | 1022.4 |
| 20260830113205 | 38 | 266 | 2.0 | 3.0 | 0.00 | 0.00 | 0.00 | 78 | 1022.6 |
| 20260830112205 | 38 | 237 | 2.0 | 4.0 | 0.00 | 0.00 | 0.00 | 77 | 1022.5 |
| 20260830110306 | 38 | 263 | 4.0 | 6.0 | 0.00 | 0.00 | 0.00 | 77 | 1022.4 |
| 20260830105306 | 38 | 282 | 2.0 | 6.0 | 0.00 | 0.00 | 0.00 | 78 | 1022.4 |
| 20260830103304 | 38 | 229 | 0.0 | 2.0 | 0.00 | 0.00 | 0.00 | 77 | 1022.3 |
| 20260830103205 | 38 | 227 | 0.0 | 1.0 | 0.00 | 0.00 | 0.00 | 77 | 1022.3 |
| 20260830102204 | 39 | 243 | 0.0 | 1.0 | 0.00 | 0.00 | 0.00 | 77 | 1022.4 |
| 20260830101207 | 38 | 241 | 1.0 | 4.0 | 0.00 | 0.00 | 0.00 | 77 | 1022.2 |
| 20260830100304 | 38 | 244 | 0.0 | 0.0 | 0.00 | 0.00 | 0.00 | 77 | 1022.2 |
| 20260830094405 | 38 | 245 | 0.0 | 1.0 | 0.00 | 0.00 | 0.00 | 76 | 1022.1 |
| 20260830090604 | 41 | 202 | 0.0 | 1.0 | 0.00 | 0.00 | 0.00 | 72 | 1022.0 |
| 20260830085606 | 40 | 280 | 0.0 | 3.0 | 0.00 | 0.00 | 0.00 | 75 | 1022.0 |
| 20260830085505 | 40 | 252 | 1.0 | 3.0 | 0.00 | 0.00 | 0.00 | 74 | 1022.0 |
| 20260830084504 | 38 | 254 | 2.0 | 4.0 | 0.00 | 0.00 | 0.00 | 78 | 1021.8 |
| 20260830083507 | 38 | 244 | 0.0 | 4.0 | 0.00 | 0.00 | 0.00 | 79 | 1021.8 |
| 20260830082507 | 38 | 202 | 0.0 | 0.0 | 0.00 | 0.00 | 0.00 | 77 | 1021.8 |
| 20260830081504 | 36 | 202 | 0.0 | 0.0 | 0.00 | 0.00 | 0.00 | 76 | 1021.8 |
| 20260830080504 | 36 | 202 | 0.0 | 0.0 | 0.00 | 0.00 | 0.00 | 75 | 1021.9 |
| 20260830075504 | 38 | 202 | 0.0 | 0.0 | 0.00 | 0.00 | 0.00 | 74 | 1021.8 |
| 20260830074506 | 39 | 202 | 0.0 | 1.0 | 0.00 | 0.00 | 0.00 | 73 | 1021.9 |
| 20260830073505 | 39 | 202 | 0.0 | 0.0 | 0.00 | 0.00 | 0.00 | 72 | 1021.8 |
| 20260830072603 | 40 | 202 | 0.0 | 0.0 | 0.00 | 0.00 | 0.00 | 71 | 1022.0 |
| 20260830071605 | 40 | 254 | 0.0 | 0.0 | 0.00 | 0.00 | 0.00 | 71 | 1022.1 |
| 20260830070704 | 40 | 225 | 0.0 | 0.0 | 0.00 | 0.00 | 0.00 | 69 | 1022.0 |
| 20260830065718 | 41 | 225 | 0.0 | 0.0 | 0.00 | 0.00 | 0.00 | 68 | 1022.1 |
| 20260830064714 | 42 | 225 | 0.0 | 0.0 | 0.00 | 0.00 | 0.00 | 67 | 1021.9 |
| 20260830063715 | 42 | 225 | 0.0 | 0.0 | 0.00 | 0.00 | 0.00 | 67 | 1022.0 |
| 20260830062718 | 42 | 229 | 0.0 | 0.0 | 0.00 | 0.00 | 0.00 | 66 | 1021.8 |
| 20260830061716 | 42 | 337 | 0.0 | 0.0 | 0.00 | 0.00 | 0.00 | 100 | 1021.9 |
| 20260830060714 | 42 | 247 | 0.0 | 0.0 | 0.00 | 0.00 | 0.00 | 66 | 1021.9 |
| 20260830055717 | 43 | 247 | 0.0 | 0.0 | 0.00 | 0.00 | 0.00 | 64 | 1022.0 |
| 20260830054717 | 44 | 247 | 0.0 | 0.0 | 0.00 | 0.00 | 0.00 | 64 | 1022.0 |
| 20260830053715 | 43 | 360 | 0.0 | 0.0 | 0.00 | 0.00 | 0.00 | 60 | 1022.1 |
| 20260830052715 | 37 | 332 | 0.0 | 1.0 | 0.00 | 0.00 | 0.00 | 58 | 1022.1 |
| 20260830045714 | 48 | 29 | 0.0 | 1.0 | 0.00 | 0.00 | 0.00 | 53 | 1022.0 |
| 20260830043813 | 51 | 292 | 0.0 | 0.0 | 0.00 | 0.00 | 0.00 | 30 | 1022.1 |
| 20260830042815 | 51 | 112 | 0.0 | 0.0 | 0.00 | 0.00 | 0.00 | 49 | 1022.0 |
| 20260830040914 | 52 | 360 | 0.0 | 0.0 | 0.00 | 0.00 | 0.00 | 49 | 1021.9 |
| 20260830035915 | 52 | 67 | 0.0 | 0.0 | 0.00 | 0.00 | 0.00 | 49 | 1021.7 |
| 20260830033929 | 53 | 66 | 1.0 | 3.0 | 0.00 | 0.00 | 0.00 | 46 | 1021.6 |
| 20260830033017 | 54 | 347 | 1.0 | 2.0 | 0.00 | 0.00 | 0.00 | 46 | 1021.6 |
| 20260830032013 | 54 | 97 | 5.0 | 9.0 | 0.00 | 0.00 | 0.00 | 46 | 1021.3 |
| 20260830031014 | 55 | 80 | 5.0 | 9.0 | 0.00 | 0.00 | 0.00 | 45 | 1021.1 |
| 20260830030015 | 55 | 62 | 5.0 | 9.0 | 0.00 | 0.00 | 0.00 | 43 | 1021.0 |
| 20260830025016 | 56 | 101 | 10.0 | 14.0 | 0.00 | 0.00 | 0.00 | 43 | 1020.7 |
| 20260830024016 | 56 | 86 | 8.0 | 13.0 | 0.00 | 0.00 | 0.00 | 43 | 1020.7 |
| 20260830023115 | 56 | 91 | 10.0 | 14.0 | 0.00 | 0.00 | 0.00 | 41 | 1020.4 |
| 20260830022115 | 57 | 101 | 10.0 | 15.0 | 0.00 | 0.00 | 0.00 | 41 | 1020.4 |
| 20260830021114 | 57 | 93 | 11.0 | 15.0 | 0.00 | 0.00 | 0.00 | 41 | 1020.2 |
| 20260830015213 | 58 | 93 | 12.0 | 18.0 | 0.00 | 0.00 | 0.00 | 39 | 1020.2 |
| 20260830014214 | 59 | 92 | 11.0 | 17.0 | 0.00 | 0.00 | 0.00 | 40 | 1020.2 |